�������l�o���
Date,Time,MP-1(��Sv/h),MP-2(��Sv/h),MP-3(��Sv/h),MP-4(��Sv/h),MP-5(��Sv/h),MP-6(��Sv/h),MP-7(��Sv/h),MP-8(��Sv/h),����,����(m/s),���J
2018/09/17,00:00,0.788,1.182,0.833,1.470,1.073,0.466,0.812,0.771,��,6.7,��
2018/09/17,00:10,0.787,1.187,0.834,1.471,1.074,0.466,0.811,0.769,��,5.3,��
2018/09/17,00:20,0.787,1.184,0.835,1.468,1.072,0.467,0.810,0.768,��,6.0,��
2018/09/17,00:30,0.787,1.184,0.836,1.473,1.071,0.465,0.812,0.770,��쐼,5.8,��
2018/09/17,00:40,0.786,1.182,0.836,1.470,1.075,0.466,0.813,0.770,��쐼,5.4,��
2018/09/17,00:50,0.788,1.183,0.836,1.470,1.073,0.466,0.813,0.770,��쐼,4.6,��
2018/09/17,01:00,0.787,1.182,0.836,1.471,1.072,0.466,0.810,0.769,��,5.0,�L
2018/09/17,01:10,0.788,1.182,0.835,1.471,1.072,0.466,0.812,0.770,��,3.9,�L
2018/09/17,01:20,0.789,1.181,0.834,1.471,1.075,0.466,0.812,0.770,��,3.8,��
2018/09/17,01:30,0.787,1.184,0.836,1.470,1.073,0.465,0.810,0.770,��,3.6,��
2018/09/17,01:40,0.788,1.183,0.834,1.469,1.074,0.466,0.811,0.770,��,3.7,��
2018/09/17,01:50,0.788,1.182,0.836,1.473,1.073,0.466,0.813,0.769,��,4.1,��
2018/09/17,02:00,0.789,1.181,0.837,1.469,1.074,0.466,0.811,0.770,��,4.5,��
2018/09/17,02:10,0.788,1.181,0.836,1.471,1.075,0.466,0.811,0.769,��,4.3,��
2018/09/17,02:20,0.787,1.183,0.838,1.469,1.074,0.466,0.813,0.769,��쐼,4.6,��
2018/09/17,02:30,0.790,1.185,0.837,1.471,1.074,0.466,0.811,0.770,��,4.8,��
2018/09/17,02:40,0.789,1.182,0.835,1.471,1.073,0.467,0.813,0.771,��,5.2,��
2018/09/17,02:50,0.790,1.183,0.835,1.470,1.073,0.465,0.812,0.769,��쐼,4.6,��
2018/09/17,03:00,0.789,1.182,0.835,1.473,1.072,0.465,0.812,0.770,��쐼,5.5,��
2018/09/17,03:10,0.788,1.183,0.836,1.471,1.073,0.466,0.811,0.770,�쐼,5.8,��
2018/09/17,03:20,0.790,1.184,0.838,1.472,1.073,0.466,0.812,0.769,�쐼,5.3,��
2018/09/17,03:30,0.789,1.181,0.837,1.472,1.074,0.466,0.811,0.769,��쐼,5.2,��
2018/09/17,03:40,0.788,1.183,0.837,1.469,1.074,0.467,0.811,0.772,��쐼,5.3,��
2018/09/17,03:50,0.790,1.180,0.835,1.470,1.073,0.466,0.813,0.769,�쐼,4.2,��
2018/09/17,04:00,0.786,1.183,0.836,1.469,1.073,0.467,0.813,0.769,��쐼,2.2,��
2018/09/17,04:10,0.788,1.183,0.835,1.469,1.072,0.468,0.812,0.768,��쐼,1.1,��
2018/09/17,04:20,0.788,1.182,0.835,1.471,1.074,0.466,0.812,0.771,�k,2.6,��
2018/09/17,04:30,0.791,1.185,0.837,1.472,1.073,0.467,0.810,0.768,�k,3.2,��
2018/09/17,04:40,0.789,1.183,0.836,1.474,1.076,0.467,0.813,0.770,�k,3.4,��
2018/09/17,04:50,0.792,1.184,0.837,1.471,1.076,0.466,0.812,0.768,�k,4.3,��
2018/09/17,05:00,0.788,1.182,0.837,1.471,1.075,0.466,0.813,0.769,�k�k��,4.9,��
2018/09/17,05:10,0.790,1.183,0.836,1.471,1.074,0.466,0.813,0.770,�k�k��,5.4,��
2018/09/17,05:20,0.788,1.185,0.836,1.472,1.073,0.465,0.811,0.769,�k,4.6,��
2018/09/17,05:30,0.790,1.183,0.836,1.474,1.074,0.466,0.812,0.771,�k,5.6,��
2018/09/17,05:40,0.789,1.181,0.835,1.474,1.073,0.466,0.812,0.770,�k,4.8,��
2018/09/17,05:50,0.787,1.182,0.836,1.470,1.073,0.465,0.811,0.768,�k,5.9,��
2018/09/17,06:00,0.789,1.183,0.834,1.473,1.074,0.463,0.810,0.770,�k,7.8,��
2018/09/17,06:10,0.787,1.181,0.834,1.472,1.075,0.464,0.811,0.769,�k,7.7,��
2018/09/17,06:20,0.788,1.178,0.835,1.472,1.074,0.464,0.810,0.770,�k,7.7,��
2018/09/17,06:30,0.787,1.180,0.834,1.472,1.076,0.463,0.810,0.767,�k�k��,6.9,��
2018/09/17,06:40,0.785,1.180,0.834,1.472,1.072,0.463,0.812,0.770,�k�k��,6.5,��
2018/09/17,06:50,0.788,1.179,0.834,1.469,1.072,0.463,0.810,0.768,�k,5.6,��
2018/09/17,07:00,0.786,1.180,0.833,1.470,1.073,0.463,0.810,0.769,�k,4.8,��
2018/09/17,07:10,0.787,1.180,0.832,1.471,1.072,0.462,0.811,0.769,�k,5.5,��
2018/09/17,07:20,0.787,1.176,0.832,1.472,1.072,0.463,0.810,0.769,�k�k��,3.8,��
2018/09/17,07:30,0.787,1.179,0.832,1.469,1.069,0.462,0.811,0.769,�k,3.1,��
2018/09/17,07:40,0.787,1.178,0.833,1.470,1.074,0.462,0.810,0.768,�k,3.9,��
2018/09/17,07:50,0.787,1.179,0.832,1.468,1.073,0.462,0.809,0.767,�k�k��,5.5,��
2018/09/17,08:00,0.787,1.178,0.831,1.472,1.071,0.462,0.809,0.766,�k,6.6,��
2018/09/17,08:10,0.787,1.180,0.831,1.470,1.071,0.462,0.810,0.767,�k,6.2,��
2018/09/17,08:20,0.788,1.179,0.831,1.471,1.071,0.462,0.810,0.766,�k�k��,5.6,��
2018/09/17,08:30,0.786,1.179,0.831,1.471,1.071,0.462,0.809,0.767,�k�k��,5.9,��
2018/09/17,08:40,0.788,1.176,0.832,1.471,1.070,0.462,0.810,0.768,�k�k��,5.2,��
2018/09/17,08:50,0.788,1.180,0.831,1.471,1.073,0.460,0.812,0.766,�k�k��,4.9,��
2018/09/17,09:00,0.787,1.179,0.833,1.472,1.073,0.462,0.811,0.767,�k�k��,4.7,��
2018/09/17,09:10,0.790,1.178,0.832,1.471,1.074,0.463,0.811,0.767,�k�k��,5.1,��
2018/09/17,09:20,0.788,1.181,0.829,1.473,1.073,0.464,0.811,0.768,�k�k��,5.5,��
2018/09/17,09:30,0.787,1.179,0.832,1.472,1.072,0.463,0.811,0.767,�k�k��,5.4,��
2018/09/17,09:40,0.788,1.180,0.832,1.471,1.074,0.462,0.808,0.767,�k�k��,5.5,��
2018/09/17,09:50,0.790,1.177,0.831,1.472,1.075,0.462,0.811,0.767,�k�k��,5.5,��
2018/09/17,10:00,0.789,1.178,0.833,1.473,1.075,0.462,0.810,0.768,�k�k��,5.2,��
2018/09/17,10:10,0.788,1.179,0.831,1.470,1.073,0.462,0.811,0.767,�k�k��,4.7,��
2018/09/17,10:20,0.788,1.179,0.831,1.473,1.074,0.462,0.812,0.767,�k�k��,4.8,��
2018/09/17,10:30,0.789,1.180,0.831,1.471,1.071,0.463,0.811,0.766,�k�k��,4.2,��
2018/09/17,10:40,0.788,1.179,0.832,1.475,1.074,0.460,0.811,0.768,�k�k��,4.6,��
2018/09/17,10:50,0.789,1.178,0.830,1.474,1.074,0.463,0.812,0.767,�k�k��,4.2,��
2018/09/17,11:00,0.788,1.182,0.833,1.471,1.075,0.463,0.814,0.767,�k�k��,3.9,��
2018/09/17,11:10,0.791,1.181,0.833,1.474,1.074,0.464,0.811,0.769,�k�k��,4.2,��
2018/09/17,11:20,0.790,1.181,0.834,1.475,1.074,0.463,0.811,0.767,�k,2.3,��
2018/09/17,11:30,0.790,1.181,0.833,1.473,1.075,0.464,0.810,0.767,�k�k��,1.2,��
2018/09/17,11:40,0.792,1.184,0.833,1.472,1.076,0.463,0.813,0.769,�k,2.0,��
2018/09/17,11:50,0.790,1.184,0.832,1.475,1.077,0.465,0.812,0.768,�k�k��,2.0,��
2018/09/17,12:00,0.792,1.182,0.832,1.475,1.076,0.465,0.813,0.768,�k,1.9,��
2018/09/17,12:10,0.792,1.181,0.833,1.473,1.077,0.462,0.813,0.769,�k,1.7,��
2018/09/17,12:20,0.790,1.186,0.835,1.475,1.080,0.465,0.813,0.769,�k�k��,2.3,��
2018/09/17,12:30,0.793,1.185,0.834,1.477,1.080,0.464,0.813,0.771,�k��,3.2,��
2018/09/17,12:40,0.792,1.186,0.835,1.474,1.078,0.462,0.813,0.769,���k��,3.0,��
2018/09/17,12:50,0.792,1.188,0.836,1.475,1.080,0.462,0.814,0.768,�k��,3.3,��
2018/09/17,13:00,0.792,1.188,0.836,1.476,1.078,0.464,0.814,0.769,�k��,3.6,��
2018/09/17,13:10,0.790,1.188,0.835,1.475,1.083,0.464,0.813,0.770,�k��,4.5,��
2018/09/17,13:20,0.792,1.184,0.836,1.479,1.080,0.464,0.813,0.769,�k��,5.0,��
2018/09/17,13:30,0.791,1.185,0.835,1.474,1.080,0.465,0.814,0.769,�k��,4.8,��
2018/09/17,13:40,0.792,1.186,0.836,1.478,1.082,0.464,0.813,0.770,�k�k��,4.6,��
2018/09/17,13:50,0.793,1.187,0.835,1.478,1.083,0.465,0.813,0.770,�k�k��,4.4,��
2018/09/17,14:00,0.793,1.185,0.835,1.478,1.082,0.466,0.814,0.768,�k�k��,2.9,��
2018/09/17,14:10,0.793,1.183,0.836,1.478,1.080,0.465,0.814,0.767,���쓌,1.4,��
2018/09/17,14:20,0.793,1.187,0.835,1.479,1.083,0.464,0.814,0.769,�k��,2.3,��
2018/09/17,14:30,0.792,1.187,0.837,1.479,1.087,0.466,0.814,0.769,�k��,2.0,��
2018/09/17,14:40,0.793,1.187,0.836,1.479,1.083,0.463,0.813,0.771,�k�k��,2.5,��
2018/09/17,14:50,0.792,1.188,0.836,1.478,1.082,0.465,0.813,0.769,�k�k��,1.5,��
2018/09/17,15:00,0.793,1.187,0.837,1.478,1.082,0.464,0.815,0.768,�k�k��,2.0,��
2018/09/17,15:10,0.793,1.186,0.839,1.480,1.084,0.467,0.814,0.770,�k,2.0,��
2018/09/17,15:20,0.794,1.189,0.836,1.479,1.083,0.465,0.815,0.768,�k��,2.6,��
2018/09/17,15:30,0.793,1.190,0.838,1.481,1.085,0.467,0.815,0.771,���k��,2.6,��
2018/09/17,15:40,0.795,1.191,0.837,1.478,1.086,0.466,0.813,0.770,���k��,2.3,��
2018/09/17,15:50,0.795,1.192,0.838,1.475,1.085,0.466,0.814,0.770,��,2.0,��
2018/09/17,16:00,0.793,1.189,0.837,1.475,1.082,0.467,0.813,0.770,�k�k��,1.5,��
2018/09/17,16:10,0.794,1.191,0.837,1.478,1.083,0.464,0.811,0.770,�k��,1.5,��
2018/09/17,16:20,0.794,1.192,0.837,1.476,1.083,0.466,0.814,0.769,�k�k��,1.9,��
2018/09/17,16:30,0.793,1.192,0.838,1.479,1.086,0.464,0.814,0.770,�k,1.9,��
2018/09/17,16:40,0.793,1.191,0.838,1.477,1.087,0.465,0.815,0.769,�k�k��,0.9,��
2018/09/17,16:50,0.795,1.194,0.839,1.480,1.086,0.466,0.812,0.769,�k�k��,0.9,��
2018/09/17,17:00,0.795,1.193,0.839,1.479,1.087,0.465,0.813,0.771,�k��,1.1,��
2018/09/17,17:10,0.794,1.193,0.840,1.479,1.086,0.468,0.814,0.770,�k,1.1,��
2018/09/17,17:20,0.797,1.193,0.838,1.478,1.089,0.466,0.814,0.773,���k��,1.7,��
2018/09/17,17:30,0.796,1.197,0.841,1.479,1.084,0.467,0.813,0.770,�k�k��,0.8,��
2018/09/17,17:40,0.796,1.196,0.840,1.480,1.087,0.466,0.814,0.770,��,0.9,��
2018/09/17,17:50,0.796,1.195,0.839,1.477,1.085,0.467,0.814,0.772,���쐼,0.6,��
2018/09/17,18:00,0.795,1.196,0.839,1.480,1.083,0.465,0.815,0.771,�k��,0.8,��
2018/09/17,18:10,0.796,1.196,0.840,1.478,1.086,0.465,0.815,0.771,-,CALM,��
2018/09/17,18:20,0.796,1.197,0.839,1.479,1.085,0.466,0.814,0.771,-,CALM,��
2018/09/17,18:30,0.794,1.197,0.839,1.479,1.086,0.465,0.816,0.771,-,CALM,��
2018/09/17,18:40,0.795,1.197,0.840,1.480,1.085,0.467,0.813,0.772,���쐼,1.7,��
2018/09/17,18:50,0.795,1.195,0.839,1.482,1.085,0.466,0.814,0.771,�쐼,1.4,��
2018/09/17,19:00,0.798,1.198,0.839,1.480,1.087,0.466,0.816,0.771,�쐼,1.4,�L
2018/09/17,19:10,0.796,1.195,0.840,1.480,1.086,0.467,0.814,0.772,�쐼,1.5,��
2018/09/17,19:20,0.796,1.196,0.841,1.479,1.085,0.467,0.815,0.772,���쐼,2.0,��
2018/09/17,19:30,0.796,1.195,0.840,1.482,1.085,0.467,0.815,0.770,��,1.5,��
2018/09/17,19:40,0.796,1.197,0.840,1.482,1.084,0.467,0.815,0.772,�k��,2.0,��
2018/09/17,19:50,0.798,1.197,0.839,1.480,1.085,0.466,0.816,0.772,���k��,2.2,��
2018/09/17,20:00,0.797,1.195,0.842,1.479,1.086,0.466,0.814,0.772,���k��,3.9,��
2018/09/17,20:10,0.797,1.196,0.840,1.481,1.086,0.466,0.815,0.773,�k��,4.1,��
2018/09/17,20:20,0.795,1.196,0.840,1.481,1.084,0.465,0.814,0.771,���k��,4.5,��
2018/09/17,20:30,0.797,1.196,0.841,1.482,1.086,0.466,0.813,0.771,���k��,5.5,��
2018/09/17,20:40,0.794,1.197,0.840,1.478,1.087,0.466,0.815,0.770,���k��,5.8,��
2018/09/17,20:50,0.796,1.195,0.839,1.482,1.087,0.467,0.816,0.772,�k��,6.7,��
2018/09/17,21:00,0.796,1.197,0.839,1.481,1.086,0.466,0.814,0.771,�k��,7.4,��
2018/09/17,21:10,0.796,1.194,0.838,1.481,1.084,0.466,0.814,0.770,�k��,7.9,��
2018/09/17,21:20,0.795,1.196,0.842,1.480,1.085,0.467,0.814,0.771,�k��,7.1,��
2018/09/17,21:30,0.796,1.196,0.841,1.482,1.085,0.465,0.814,0.771,�k��,7.2,��
2018/09/17,21:40,0.795,1.198,0.840,1.483,1.082,0.466,0.814,0.772,�k��,7.9,��
2018/09/17,21:50,0.795,1.195,0.842,1.481,1.084,0.466,0.813,0.772,�k��,6.3,��
2018/09/17,22:00,0.795,1.196,0.844,1.482,1.084,0.466,0.815,0.771,�k��,4.1,��
2018/09/17,22:10,0.794,1.195,0.842,1.483,1.085,0.467,0.813,0.771,���k��,3.3,��
2018/09/17,22:20,0.798,1.197,0.842,1.480,1.086,0.466,0.814,0.772,���k��,2.3,��
2018/09/17,22:30,0.794,1.197,0.840,1.482,1.083,0.466,0.813,0.770,�k��,3.0,��
2018/09/17,22:40,0.796,1.196,0.842,1.482,1.084,0.465,0.814,0.772,�k��,4.0,��
2018/09/17,22:50,0.796,1.196,0.844,1.479,1.083,0.467,0.813,0.770,���k��,2.6,��
2018/09/17,23:00,0.796,1.197,0.842,1.481,1.083,0.466,0.814,0.773,���k��,1.4,��
2018/09/17,23:10,0.792,1.198,0.840,1.483,1.085,0.464,0.815,0.772,�k�k��,1.7,��
2018/09/17,23:20,0.795,1.198,0.841,1.482,1.085,0.467,0.813,0.771,���k��,2.9,��
2018/09/17,23:30,0.796,1.195,0.840,1.479,1.085,0.466,0.813,0.771,��,3.0,��
2018/09/17,23:40,0.794,1.196,0.841,1.481,1.087,0.466,0.813,0.770,�k��,2.5,��
2018/09/17,23:50,0.795,1.196,0.841,1.481,1.085,0.467,0.816,0.772,�k��,2.3,��
